| time (UTC) | temp F | wind direction | speed MPH | gust MPH | rain 1hr in | rain 24hr in | rain mn in | humidity % | barometer mb |
| 20260902103824 | 76 | 273 | 0.0 | 2.0 | 0.00 | 0.00 | 0.00 | 87 | 1017.4 |
| 20260902103109 | 76 | 121 | 0.0 | 2.0 | 0.00 | 0.00 | 0.00 | 86 | 1015.6 |
| 20260902103048 | 76 | 121 | 0.0 | 2.0 | 0.00 | 0.00 | 0.00 | 86 | 1017.3 |
| 20260902102812 | 76 | 120 | 0.0 | 2.0 | 0.00 | 0.00 | 0.00 | 86 | 1017.3 |
| 20260902102307 | 76 | 118 | 0.0 | 2.0 | 0.00 | 0.00 | 0.00 | 86 | 1017.2 |
| 20260902101805 | 77 | 118 | 0.0 | 1.0 | 0.00 | 0.00 | 0.00 | 86 | 1017.3 |
| 20260902101521 | 76 | 118 | 0.0 | 1.0 | 0.00 | 0.00 | 0.00 | 86 | 1015.5 |
| 20260902101013 | 77 | 118 | 0.0 | 1.0 | 0.00 | 0.00 | 0.00 | 85 | 1017.3 |
| 20260902100509 | 77 | 118 | 0.0 | 1.0 | 0.00 | 0.00 | 0.00 | 85 | 1017.3 |
| 20260902100022 | 77 | 118 | 0.0 | 1.0 | 0.00 | 0.00 | 0.00 | 85 | 1015.4 |
| 20260902095941 | 77 | 118 | 0.0 | 1.0 | 0.00 | 0.00 | 0.00 | 85 | 1017.2 |
| 20260902095856 | 77 | 273 | 0.0 | 1.0 | 0.00 | 0.00 | 0.00 | 84 | 1017.2 |
| 20260902094851 | 77 | 118 | 0.0 | 2.0 | 0.00 | 0.00 | 0.00 | 84 | 1017.2 |
| 20260902094509 | 77 | 273 | 0.0 | 3.0 | 0.00 | 0.00 | 0.00 | 84 | 1015.4 |
| 20260902094341 | 78 | 118 | 0.0 | 3.0 | 0.00 | 0.00 | 0.00 | 84 | 1017.2 |
| 20260902093840 | 78 | 117 | 1.0 | 3.0 | 0.00 | 0.00 | 0.00 | 84 | 1017.2 |
| 20260902093314 | 78 | 118 | 0.0 | 2.0 | 0.00 | 0.00 | 0.00 | 83 | 1017.2 |
| 20260902093026 | 77 | 118 | 0.0 | 1.0 | 0.00 | 0.00 | 0.00 | 83 | 1015.4 |
| 20260902092747 | 78 | 118 | 0.0 | 1.0 | 0.00 | 0.00 | 0.00 | 83 | 1017.1 |
| 20260902092452 | 78 | 118 | 0.0 | 1.0 | 0.00 | 0.00 | 0.00 | 83 | 1017.2 |
| 20260902091932 | 78 | 118 | 0.0 | 1.0 | 0.00 | 0.00 | 0.00 | 83 | 1017.1 |
| 20260902091536 | 78 | 118 | 0.0 | 1.0 | 0.00 | 0.00 | 0.00 | 83 | 1015.3 |
| 20260902091144 | 78 | 118 | 0.0 | 2.0 | 0.00 | 0.00 | 0.00 | 83 | 1017.2 |
| 20260902090642 | 78 | 118 | 0.0 | 2.0 | 0.00 | 0.00 | 0.00 | 83 | 1017.1 |
| 20260902090138 | 78 | 118 | 0.0 | 2.0 | 0.00 | 0.00 | 0.00 | 83 | 1017.0 |
| 20260902090055 | 78 | 118 | 0.0 | 2.0 | 0.00 | 0.00 | 0.00 | 83 | 1015.2 |
| 20260902085639 | 78 | 118 | 0.0 | 2.0 | 0.00 | 0.00 | 0.00 | 82 | 1016.8 |
| 20260902085357 | 79 | 273 | 0.0 | 2.0 | 0.00 | 0.00 | 0.00 | 82 | 1016.8 |
| 20260902085115 | 78 | 118 | 0.0 | 2.0 | 0.00 | 0.00 | 0.00 | 82 | 1016.8 |
| 20260902084807 | 79 | 273 | 0.0 | 2.0 | 0.00 | 0.00 | 0.00 | 81 | 1016.6 |
| 20260902084554 | 78 | 273 | 0.0 | 2.0 | 0.00 | 0.00 | 0.00 | 81 | 1015.1 |
| 20260902083556 | 79 | 118 | 0.0 | 2.0 | 0.00 | 0.00 | 0.00 | 81 | 1016.5 |
| 20260902083315 | 79 | 118 | 1.0 | 2.0 | 0.00 | 0.00 | 0.00 | 80 | 1016.5 |
| 20260902083038 | 79 | 118 | 0.0 | 2.0 | 0.00 | 0.00 | 0.00 | 80 | 1014.8 |
| 20260902082527 | 79 | 118 | 0.0 | 3.0 | 0.00 | 0.00 | 0.00 | 80 | 1016.4 |
| 20260902082243 | 79 | 118 | 0.0 | 3.0 | 0.00 | 0.00 | 0.00 | 80 | 1016.4 |
| 20260902081617 | 79 | 118 | 0.0 | 3.0 | 0.00 | 0.00 | 0.00 | 80 | 1014.8 |
| 20260902081523 | 79 | 118 | 0.0 | 2.0 | 0.00 | 0.00 | 0.00 | 80 | 1016.5 |
| 20260902081009 | 79 | 273 | 0.0 | 3.0 | 0.00 | 0.00 | 0.00 | 80 | 1016.4 |
| 20260902080700 | 79 | 273 | 0.0 | 3.0 | 0.00 | 0.00 | 0.00 | 80 | 1016.4 |
| 20260902080109 | 79 | 273 | 0.0 | 3.0 | 0.00 | 0.00 | 0.00 | 79 | 1014.8 |
| 20260902075940 | 79 | 273 | 0.0 | 2.0 | 0.00 | 0.00 | 0.00 | 79 | 1016.4 |
| 20260902075441 | 79 | 273 | 0.0 | 2.0 | 0.00 | 0.00 | 0.00 | 79 | 1016.4 |
| 20260902074915 | 80 | 119 | 0.0 | 2.0 | 0.00 | 0.00 | 0.00 | 79 | 1016.3 |
| 20260902074538 | 79 | 273 | 0.0 | 3.0 | 0.00 | 0.00 | 0.00 | 78 | 1014.7 |
| 20260902074347 | 80 | 273 | 0.0 | 3.0 | 0.00 | 0.00 | 0.00 | 78 | 1016.3 |
| 20260902073822 | 80 | 120 | 0.0 | 2.0 | 0.00 | 0.00 | 0.00 | 78 | 1016.3 |
| 20260902073305 | 80 | 273 | 0.0 | 2.0 | 0.00 | 0.00 | 0.00 | 77 | 1016.4 |
| 20260902073100 | 79 | 273 | 0.0 | 1.0 | 0.00 | 0.00 | 0.00 | 77 | 1014.7 |
| 20260902072805 | 80 | 120 | 0.0 | 1.0 | 0.00 | 0.00 | 0.00 | 77 | 1016.4 |
| 20260902072244 | 80 | 121 | 0.0 | 2.0 | 0.00 | 0.00 | 0.00 | 77 | 1016.4 |
| 20260902071718 | 80 | 120 | 1.0 | 2.0 | 0.00 | 0.00 | 0.00 | 77 | 1016.3 |
| 20260902071516 | 80 | 121 | 0.0 | 2.0 | 0.00 | 0.00 | 0.00 | 77 | 1014.7 |
| 20260902071219 | 80 | 121 | 1.0 | 4.0 | 0.00 | 0.00 | 0.00 | 77 | 1016.3 |
| 20260902070709 | 80 | 121 | 1.0 | 4.0 | 0.00 | 0.00 | 0.00 | 77 | 1016.4 |
| 20260902070209 | 80 | 122 | 1.0 | 3.0 | 0.00 | 0.00 | 0.00 | 77 | 1016.3 |
| 20260902070024 | 80 | 122 | 1.0 | 3.0 | 0.00 | 0.00 | 0.00 | 77 | 1014.7 |
| 20260902065649 | 80 | 122 | 1.0 | 2.0 | 0.00 | 0.00 | 0.00 | 77 | 1016.4 |
| 20260902065147 | 80 | 122 | 1.0 | 3.0 | 0.00 | 0.00 | 0.00 | 77 | 1016.4 |
| 20260902064647 | 80 | 122 | 1.0 | 3.0 | 0.00 | 0.00 | 0.00 | 77 | 1016.4 |
| 20260902064523 | 80 | 121 | 1.0 | 3.0 | 0.00 | 0.00 | 0.00 | 77 | 1014.7 |
| 20260902064122 | 80 | 122 | 0.0 | 2.0 | 0.00 | 0.00 | 0.00 | 77 | 1016.4 |
| 20260902063603 | 80 | 273 | 0.0 | 2.0 | 0.00 | 0.00 | 0.00 | 77 | 1016.3 |
| 20260902063104 | 80 | 121 | 0.0 | 3.0 | 0.00 | 0.00 | 0.00 | 77 | 1016.3 |
| 20260902063050 | 80 | 122 | 0.0 | 3.0 | 0.00 | 0.00 | 0.00 | 77 | 1016.3 |
| 20260902063004 | 80 | 273 | 1.0 | 3.0 | 0.00 | 0.00 | 0.00 | 77 | 1014.6 |
| 20260902062104 | 81 | 122 | 0.0 | 3.0 | 0.00 | 0.00 | 0.00 | 77 | 1016.4 |
| 20260902061605 | 81 | 122 | 1.0 | 3.0 | 0.00 | 0.00 | 0.00 | 76 | 1016.4 |
| 20260902061544 | 80 | 122 | 0.0 | 3.0 | 0.00 | 0.00 | 0.00 | 76 | 1014.7 |
| 20260902061300 | 81 | 122 | 1.0 | 3.0 | 0.00 | 0.00 | 0.00 | 76 | 1016.3 |
| 20260902060518 | 81 | 122 | 1.0 | 3.0 | 0.00 | 0.00 | 0.00 | 76 | 1016.4 |
| 20260902060227 | 81 | 120 | 1.0 | 2.0 | 0.00 | 0.00 | 0.00 | 75 | 1016.4 |
| 20260902060106 | 81 | 120 | 1.0 | 3.0 | 0.00 | 0.00 | 0.00 | 75 | 1016.4 |
| 20260902060031 | 81 | 273 | 1.0 | 3.0 | 0.00 | 0.00 | 0.00 | 75 | 1014.7 |
| 20260902054955 | 81 | 119 | 1.0 | 2.0 | 0.00 | 0.00 | 0.00 | 75 | 1016.4 |
| 20260902054535 | 81 | 120 | 0.0 | 2.0 | 0.00 | 0.00 | 0.00 | 75 | 1014.7 |
| 20260902054457 | 81 | 120 | 1.0 | 2.0 | 0.00 | 0.00 | 0.00 | 75 | 1016.4 |
| 20260902053939 | 82 | 273 | 1.0 | 2.0 | 0.00 | 0.00 | 0.00 | 74 | 1016.4 |
| 20260902053639 | 82 | 120 | 1.0 | 2.0 | 0.00 | 0.00 | 0.00 | 74 | 1016.4 |
| 20260902053057 | 81 | 120 | 1.0 | 2.0 | 0.00 | 0.00 | 0.00 | 74 | 1014.8 |
| 20260902052907 | 82 | 120 | 1.0 | 2.0 | 0.00 | 0.00 | 0.00 | 74 | 1016.4 |
| 20260902052345 | 82 | 120 | 1.0 | 2.0 | 0.00 | 0.00 | 0.00 | 74 | 1016.4 |
| 20260902051815 | 82 | 120 | 1.0 | 3.0 | 0.00 | 0.00 | 0.00 | 74 | 1016.4 |
| 20260902051503 | 81 | 120 | 0.0 | 3.0 | 0.00 | 0.00 | 0.00 | 74 | 1014.8 |
| 20260902051316 | 82 | 120 | 1.0 | 3.0 | 0.00 | 0.00 | 0.00 | 74 | 1016.5 |
| 20260902050749 | 82 | 118 | 1.0 | 3.0 | 0.00 | 0.00 | 0.00 | 74 | 1016.5 |
| 20260902050446 | 82 | 273 | 0.0 | 2.0 | 0.00 | 0.00 | 0.00 | 73 | 1016.4 |
| 20260902050104 | 82 | 273 | 0.0 | 2.0 | 0.00 | 0.00 | 0.00 | 73 | 1014.8 |
| 20260902045701 | 82 | 273 | 0.0 | 2.0 | 0.00 | 0.00 | 0.00 | 73 | 1016.4 |
| 20260902045155 | 82 | 273 | 0.0 | 2.0 | 0.00 | 0.00 | 0.00 | 73 | 1016.4 |
| 20260902044653 | 83 | 273 | 0.0 | 2.0 | 0.00 | 0.00 | 0.00 | 73 | 1016.4 |
| 20260902044551 | 82 | 273 | 0.0 | 2.0 | 0.00 | 0.00 | 0.00 | 73 | 1014.8 |
| 20260902044153 | 83 | 273 | 1.0 | 2.0 | 0.00 | 0.00 | 0.00 | 72 | 1016.5 |
| 20260902043625 | 83 | 273 | 1.0 | 3.0 | 0.00 | 0.00 | 0.00 | 72 | 1016.4 |
| 20260902043326 | 83 | 117 | 1.0 | 4.0 | 0.00 | 0.00 | 0.00 | 71 | 1016.4 |
| 20260902043023 | 83 | 116 | 0.0 | 4.0 | 0.00 | 0.00 | 0.00 | 71 | 1014.8 |
| 20260902042611 | 83 | 115 | 1.0 | 4.0 | 0.00 | 0.00 | 0.00 | 71 | 1016.4 |
| 20260902042341 | 83 | 114 | 1.0 | 3.0 | 0.00 | 0.00 | 0.00 | 71 | 1016.5 |
| 20260902041546 | 83 | 114 | 1.0 | 3.0 | 0.00 | 0.00 | 0.00 | 71 | 1016.4 |
| 20260902041515 | 83 | 114 | 1.0 | 3.0 | 0.00 | 0.00 | 0.00 | 71 | 1014.8 |
| 20260902041020 | 83 | 114 | 1.0 | 3.0 | 0.00 | 0.00 | 0.00 | 71 | 1016.5 |
| 20260902040914 | 84 | 114 | 1.0 | 3.0 | 0.00 | 0.00 | 0.00 | 70 | 1016.5 |
| 20260902040538 | 84 | 114 | 1.0 | 2.0 | 0.00 | 0.00 | 0.00 | 70 | 1016.5 |
| 20260902040014 | 83 | 113 | 1.0 | 3.0 | 0.00 | 0.00 | 0.00 | 70 | 1014.9 |
| 20260902035418 | 84 | 114 | 1.0 | 3.0 | 0.00 | 0.00 | 0.00 | 70 | 1016.5 |
| 20260902034852 | 84 | 113 | 1.0 | 3.0 | 0.00 | 0.00 | 0.00 | 69 | 1016.5 |
| 20260902034541 | 83 | 109 | 1.0 | 4.0 | 0.00 | 0.00 | 0.00 | 69 | 1014.9 |
| 20260902034346 | 84 | 108 | 1.0 | 4.0 | 0.00 | 0.00 | 0.00 | 69 | 1016.5 |
| 20260902033822 | 84 | 126 | 1.0 | 3.0 | 0.00 | 0.00 | 0.00 | 69 | 1016.5 |
| 20260902033253 | 84 | 126 | 1.0 | 3.0 | 0.00 | 0.00 | 0.00 | 69 | 1016.5 |
| 20260902033102 | 84 | 126 | 1.0 | 3.0 | 0.00 | 0.00 | 0.00 | 68 | 1014.8 |
| 20260902032753 | 84 | 125 | 1.0 | 3.0 | 0.00 | 0.00 | 0.00 | 68 | 1016.4 |
| 20260902032246 | 85 | 124 | 1.0 | 3.0 | 0.00 | 0.00 | 0.00 | 68 | 1016.4 |
| 20260902031745 | 85 | 124 | 1.0 | 3.0 | 0.00 | 0.00 | 0.00 | 67 | 1016.4 |
| 20260902031604 | 84 | 124 | 0.0 | 3.0 | 0.00 | 0.00 | 0.00 | 67 | 1014.7 |
| 20260902031234 | 85 | 124 | 1.0 | 3.0 | 0.00 | 0.00 | 0.00 | 67 | 1016.4 |
| 20260902030735 | 85 | 124 | 1.0 | 3.0 | 0.00 | 0.00 | 0.00 | 67 | 1016.4 |
| 20260902030209 | 85 | 124 | 1.0 | 3.0 | 0.00 | 0.00 | 0.00 | 67 | 1016.4 |
| 20260902030029 | 85 | 124 | 1.0 | 3.0 | 0.00 | 0.00 | 0.00 | 66 | 1014.8 |
| 20260902025905 | 85 | 125 | 1.0 | 3.0 | 0.00 | 0.00 | 0.00 | 66 | 1016.4 |
| 20260902025358 | 85 | 126 | 1.0 | 3.0 | 0.00 | 0.00 | 0.00 | 66 | 1016.4 |
| 20260902024611 | 85 | 126 | 1.0 | 3.0 | 0.00 | 0.00 | 0.00 | 66 | 1016.4 |
| 20260902024522 | 85 | 127 | 0.0 | 3.0 | 0.00 | 0.00 | 0.00 | 65 | 1014.8 |
| 20260902024111 | 86 | 126 | 1.0 | 3.0 | 0.00 | 0.00 | 0.00 | 65 | 1016.4 |
| 20260902023541 | 86 | 124 | 1.0 | 4.0 | 0.00 | 0.00 | 0.00 | 65 | 1016.4 |
| 20260902023041 | 86 | 124 | 1.0 | 4.0 | 0.00 | 0.00 | 0.00 | 65 | 1016.4 |
| 20260902023009 | 85 | 124 | 1.0 | 4.0 | 0.00 | 0.00 | 0.00 | 65 | 1014.8 |
| 20260902022510 | 86 | 124 | 1.0 | 3.0 | 0.00 | 0.00 | 0.00 | 65 | 1016.4 |
| 20260902022233 | 86 | 124 | 2.0 | 3.0 | 0.00 | 0.00 | 0.00 | 64 | 1016.4 |
| 20260902021608 | 86 | 125 | 1.0 | 3.0 | 0.00 | 0.00 | 0.00 | 64 | 1014.8 |
| 20260902021442 | 86 | 125 | 1.0 | 3.0 | 0.00 | 0.00 | 0.00 | 64 | 1016.4 |
| 20260902020939 | 86 | 91 | 1.0 | 5.0 | 0.00 | 0.00 | 0.00 | 64 | 1016.4 |
| 20260902020638 | 86 | 87 | 2.0 | 5.0 | 0.00 | 0.00 | 0.00 | 64 | 1016.3 |
| 20260902020033 | 86 | 85 | 0.0 | 3.0 | 0.00 | 0.00 | 0.00 | 64 | 1014.7 |
| 20260902015905 | 86 | 84 | 1.0 | 4.0 | 0.00 | 0.00 | 0.00 | 64 | 1016.3 |
| 20260902015405 | 86 | 78 | 1.0 | 5.0 | 0.00 | 0.00 | 0.00 | 63 | 1016.2 |
| 20260902014859 | 87 | 77 | 1.0 | 5.0 | 0.00 | 0.00 | 0.00 | 63 | 1016.2 |
| 20260902014547 | 86 | 68 | 0.0 | 3.0 | 0.00 | 0.00 | 0.00 | 63 | 1014.6 |
| 20260902014359 | 87 | 68 | 1.0 | 3.0 | 0.00 | 0.00 | 0.00 | 63 | 1016.2 |
| 20260902013832 | 87 | 113 | 1.0 | 4.0 | 0.00 | 0.00 | 0.00 | 62 | 1016.2 |
| 20260902013325 | 87 | 114 | 2.0 | 4.0 | 0.00 | 0.00 | 0.00 | 61 | 1016.2 |
| 20260902013056 | 87 | 116 | 1.0 | 5.0 | 0.00 | 0.00 | 0.00 | 61 | 1014.6 |
| 20260902012822 | 87 | 142 | 2.0 | 5.0 | 0.00 | 0.00 | 0.00 | 61 | 1016.2 |
| 20260902012254 | 87 | 145 | 1.0 | 4.0 | 0.00 | 0.00 | 0.00 | 61 | 1016.1 |
| 20260902012017 | 87 | 149 | 1.0 | 3.0 | 0.00 | 0.00 | 0.00 | 61 | 1016.1 |
| 20260902011528 | 87 | 155 | 1.0 | 3.0 | 0.00 | 0.00 | 0.00 | 62 | 1014.4 |
| 20260902011224 | 87 | 156 | 1.0 | 2.0 | 0.00 | 0.00 | 0.00 | 61 | 1016.0 |
| 20260902010657 | 87 | 156 | 0.0 | 2.0 | 0.00 | 0.00 | 0.00 | 61 | 1016.0 |
| 20260902010131 | 87 | 156 | 0.0 | 2.0 | 0.00 | 0.00 | 0.00 | 61 | 1016.0 |
| 20260902010101 | 87 | 156 | 0.0 | 2.0 | 0.00 | 0.00 | 0.00 | 61 | 1014.3 |
| 20260902005603 | 87 | 156 | 0.0 | 2.0 | 0.00 | 0.00 | 0.00 | 61 | 1015.9 |
| 20260902005101 | 87 | 155 | 0.0 | 1.0 | 0.00 | 0.00 | 0.00 | 60 | 1015.9 |
| 20260902004537 | 87 | 156 | 0.0 | 2.0 | 0.00 | 0.00 | 0.00 | 60 | 1015.9 |
| 20260902004506 | 87 | 155 | 0.0 | 1.0 | 0.00 | 0.00 | 0.00 | 60 | 1014.2 |
| 20260902004228 | 88 | 156 | 0.0 | 3.0 | 0.00 | 0.00 | 0.00 | 60 | 1015.9 |
| 20260902003505 | 88 | 156 | 1.0 | 3.0 | 0.00 | 0.00 | 0.00 | 59 | 1015.8 |
| 20260902003202 | 88 | 154 | 1.0 | 3.0 | 0.00 | 0.00 | 0.00 | 59 | 1015.8 |
| 20260902003131 | 88 | 156 | 1.0 | 3.0 | 0.00 | 0.00 | 0.00 | 59 | 1014.2 |
| 20260902002414 | 88 | 153 | 1.0 | 4.0 | 0.00 | 0.00 | 0.00 | 58 | 1015.9 |
| 20260902001849 | 89 | 144 | 1.0 | 4.0 | 0.00 | 0.00 | 0.00 | 58 | 1015.9 |
| 20260902001514 | 88 | 153 | 1.0 | 4.0 | 0.00 | 0.00 | 0.00 | 58 | 1014.3 |
| 20260902001323 | 89 | 149 | 1.0 | 4.0 | 0.00 | 0.00 | 0.00 | 58 | 1015.9 |
| 20260902000757 | 89 | 203 | 1.0 | 4.0 | 0.00 | 0.00 | 0.00 | 57 | 1016.0 |
| 20260902000230 | 89 | 193 | 1.0 | 6.0 | 0.00 | 0.00 | 0.00 | 57 | 1016.0 |
| 20260902000221 | 89 | 203 | 1.0 | 6.0 | 0.00 | 0.00 | 0.00 | 56 | 1016.0 |
| 20260902000029 | 89 | 203 | 0.0 | 6.0 | 0.00 | 0.00 | 0.00 | 56 | 1014.4 |
| 20260901235206 | 90 | 212 | 1.0 | 5.0 | 0.00 | 0.00 | 0.00 | 55 | 1016.0 |
| 20260901234640 | 90 | 236 | 1.0 | 5.0 | 0.00 | 0.00 | 0.00 | 55 | 1016.0 |
| 20260901234548 | 90 | 236 | 2.0 | 5.0 | 0.00 | 0.00 | 0.00 | 55 | 1014.4 |
| 20260901234139 | 90 | 183 | 1.0 | 4.0 | 0.00 | 0.00 | 0.00 | 54 | 1016.1 |
| 20260901233616 | 90 | 182 | 2.0 | 5.0 | 0.00 | 0.00 | 0.00 | 53 | 1016.1 |
| 20260901233312 | 91 | 228 | 2.0 | 5.0 | 0.00 | 0.00 | 0.00 | 52 | 1016.1 |
| 20260901233106 | 90 | 215 | 1.0 | 4.0 | 0.00 | 0.00 | 0.00 | 52 | 1014.5 |
| 20260901232812 | 91 | 198 | 2.0 | 5.0 | 0.00 | 0.00 | 0.00 | 51 | 1016.1 |
| 20260901232026 | 91 | 76 | 2.0 | 7.0 | 0.00 | 0.00 | 0.00 | 52 | 1016.2 |
| 20260901231535 | 91 | 185 | 2.0 | 6.0 | 0.00 | 0.00 | 0.00 | 52 | 1014.5 |
| 20260901231523 | 92 | 185 | 2.0 | 7.0 | 0.00 | 0.00 | 0.00 | 51 | 1016.2 |
| 20260901231023 | 92 | 171 | 2.0 | 6.0 | 0.00 | 0.00 | 0.00 | 51 | 1016.1 |
| 20260901230457 | 92 | 147 | 2.0 | 6.0 | 0.00 | 0.00 | 0.00 | 50 | 1016.1 |
| 20260901230100 | 92 | 226 | 2.0 | 5.0 | 0.00 | 0.00 | 0.00 | 50 | 1014.5 |
| 20260901225948 | 93 | 227 | 2.0 | 6.0 | 0.00 | 0.00 | 0.00 | 51 | 1016.1 |
| 20260901225445 | 93 | 213 | 3.0 | 7.0 | 0.00 | 0.00 | 0.00 | 51 | 1016.2 |
| 20260901224943 | 93 | 190 | 3.0 | 7.0 | 0.00 | 0.00 | 0.00 | 51 | 1016.1 |
| 20260901224524 | 93 | 207 | 3.0 | 5.0 | 0.00 | 0.00 | 0.00 | 52 | 1014.5 |
| 20260901224445 | 94 | 192 | 3.0 | 6.0 | 0.00 | 0.00 | 0.00 | 51 | 1016.1 |
| 20260901223920 | 94 | 143 | 2.0 | 6.0 | 0.00 | 0.00 | 0.00 | 51 | 1016.1 |
| 20260901223620 | 94 | 134 | 1.0 | 8.0 | 0.00 | 0.00 | 0.00 | 51 | 1016.1 |
| 20260901223050 | 94 | 149 | 1.0 | 4.0 | 0.00 | 0.00 | 0.00 | 50 | 1014.4 |
| 20260901222858 | 94 | 187 | 2.0 | 8.0 | 0.00 | 0.00 | 0.00 | 51 | 1016.1 |
| 20260901222351 | 94 | 172 | 3.0 | 11.0 | 0.00 | 0.00 | 0.00 | 51 | 1016.0 |
| 20260901221829 | 94 | 171 | 2.0 | 11.0 | 0.00 | 0.00 | 0.00 | 50 | 1016.0 |
| 20260901221542 | 94 | 137 | 4.0 | 11.0 | 0.00 | 0.00 | 0.00 | 50 | 1014.4 |
| 20260901221312 | 94 | 84 | 1.0 | 4.0 | 0.00 | 0.00 | 0.00 | 50 | 1016.1 |
| 20260901220817 | 94 | 209 | 2.0 | 10.0 | 0.00 | 0.00 | 0.00 | 49 | 1016.0 |
| 20260901220252 | 94 | 219 | 4.0 | 10.0 | 0.00 | 0.00 | 0.00 | 51 | 1015.9 |
| 20260901220032 | 94 | 161 | 3.0 | 10.0 | 0.00 | 0.00 | 0.00 | 50 | 1014.3 |
| 20260901215735 | 94 | 168 | 3.0 | 9.0 | 0.00 | 0.00 | 0.00 | 48 | 1016.0 |
| 20260901215212 | 94 | 124 | 3.0 | 9.0 | 0.00 | 0.00 | 0.00 | 48 | 1016.0 |
| 20260901214640 | 94 | 141 | 3.0 | 9.0 | 0.00 | 0.00 | 0.00 | 48 | 1016.0 |
| 20260901214610 | 94 | 126 | 3.0 | 9.0 | 0.00 | 0.00 | 0.00 | 48 | 1014.3 |
| 20260901214138 | 94 | 138 | 3.0 | 9.0 | 0.00 | 0.00 | 0.00 | 49 | 1015.9 |
| 20260901213637 | 94 | 179 | 4.0 | 11.0 | 0.00 | 0.00 | 0.00 | 50 | 1015.9 |
| 20260901213627 | 94 | 122 | 4.0 | 10.0 | 0.00 | 0.00 | 0.00 | 50 | 1016.0 |
| 20260901213121 | 94 | 122 | 4.0 | 9.0 | 0.00 | 0.00 | 0.00 | 50 | 1014.2 |
| 20260901212619 | 95 | 184 | 3.0 | 9.0 | 0.00 | 0.00 | 0.00 | 50 | 1015.9 |
| 20260901212102 | 95 | 205 | 4.0 | 10.0 | 0.00 | 0.00 | 0.00 | 49 | 1015.9 |
| 20260901211542 | 95 | 132 | 4.0 | 10.0 | 0.00 | 0.00 | 0.00 | 49 | 1016.0 |
| 20260901211525 | 94 | 134 | 4.0 | 9.0 | 0.00 | 0.00 | 0.00 | 49 | 1014.3 |
| 20260901211034 | 95 | 191 | 4.0 | 12.0 | 0.00 | 0.00 | 0.00 | 49 | 1015.9 |
| 20260901210535 | 95 | 224 | 4.0 | 12.0 | 0.00 | 0.00 | 0.00 | 50 | 1016.0 |
| 20260901210034 | 95 | 118 | 4.0 | 10.0 | 0.00 | 0.00 | 0.00 | 48 | 1016.0 |
| 20260901210012 | 95 | 118 | 3.0 | 10.0 | 0.00 | 0.00 | 0.00 | 48 | 1014.3 |
| 20260901205748 | 95 | 208 | 4.0 | 10.0 | 0.00 | 0.00 | 0.00 | 48 | 1016.0 |
| 20260901205003 | 95 | 233 | 3.0 | 10.0 | 0.00 | 0.00 | 0.00 | 48 | 1016.0 |
| 20260901204547 | 95 | 207 | 3.0 | 9.0 | 0.00 | 0.00 | 0.00 | 48 | 1014.4 |
| 20260901204505 | 96 | 156 | 3.0 | 9.0 | 0.00 | 0.00 | 0.00 | 48 | 1016.1 |
| 20260901203940 | 95 | 126 | 3.0 | 9.0 | 0.00 | 0.00 | 0.00 | 50 | 1016.1 |
| 20260901203436 | 95 | 81 | 3.0 | 9.0 | 0.00 | 0.00 | 0.00 | 50 | 1016.1 |
| 20260901203121 | 95 | 143 | 2.0 | 7.0 | 0.00 | 0.00 | 0.00 | 50 | 1014.5 |
| 20260901202934 | 95 | 149 | 4.0 | 15.0 | 0.00 | 0.00 | 0.00 | 49 | 1016.1 |
| 20260901202436 | 95 | 215 | 4.0 | 15.0 | 0.00 | 0.00 | 0.00 | 49 | 1016.1 |
| 20260901201909 | 95 | 149 | 4.0 | 12.0 | 0.00 | 0.00 | 0.00 | 50 | 1016.2 |
| 20260901201540 | 95 | 59 | 2.0 | 8.0 | 0.00 | 0.00 | 0.00 | 50 | 1014.4 |
| 20260901201406 | 95 | 80 | 4.0 | 8.0 | 0.00 | 0.00 | 0.00 | 52 | 1016.1 |
| 20260901200844 | 95 | 188 | 3.0 | 10.0 | 0.00 | 0.00 | 0.00 | 51 | 1016.2 |
| 20260901200341 | 95 | 76 | 4.0 | 14.0 | 0.00 | 0.00 | 0.00 | 51 | 1016.1 |
| 20260901200005 | 94 | 155 | 3.0 | 14.0 | 0.00 | 0.00 | 0.00 | 50 | 1014.5 |
| 20260901195816 | 94 | 162 | 4.0 | 14.0 | 0.00 | 0.00 | 0.00 | 51 | 1016.2 |
| 20260901195542 | 94 | 70 | 4.0 | 11.0 | 0.00 | 0.00 | 0.00 | 50 | 1016.2 |
| 20260901194813 | 94 | 174 | 5.0 | 11.0 | 0.00 | 0.00 | 0.00 | 50 | 1016.3 |
| 20260901194548 | 94 | 101 | 3.0 | 10.0 | 0.00 | 0.00 | 0.00 | 52 | 1014.7 |
| 20260901194248 | 94 | 173 | 6.0 | 12.0 | 0.00 | 0.00 | 0.00 | 52 | 1016.4 |
| 20260901193744 | 94 | 178 | 6.0 | 12.0 | 0.00 | 0.00 | 0.00 | 51 | 1016.4 |
| 20260901193227 | 94 | 168 | 5.0 | 10.0 | 0.00 | 0.00 | 0.00 | 51 | 1016.4 |
| 20260901193101 | 94 | 145 | 5.0 | 10.0 | 0.00 | 0.00 | 0.00 | 51 | 1014.8 |
| 20260901192727 | 94 | 162 | 5.0 | 10.0 | 0.00 | 0.00 | 0.00 | 52 | 1016.4 |
| 20260901192224 | 94 | 203 | 4.0 | 8.0 | 0.00 | 0.00 | 0.00 | 53 | 1016.5 |
| 20260901191944 | 94 | 110 | 4.0 | 11.0 | 0.00 | 0.00 | 0.00 | 52 | 1016.6 |
| 20260901191556 | 94 | 155 | 3.0 | 11.0 | 0.00 | 0.00 | 0.00 | 54 | 1015.0 |
| 20260901191222 | 94 | 128 | 4.0 | 11.0 | 0.00 | 0.00 | 0.00 | 52 | 1016.7 |
| 20260901190719 | 94 | 82 | 3.0 | 8.0 | 0.00 | 0.00 | 0.00 | 52 | 1016.6 |
| 20260901190219 | 93 | 188 | 4.0 | 9.0 | 0.00 | 0.00 | 0.00 | 56 | 1016.8 |
| 20260901190002 | 93 | 181 | 3.0 | 9.0 | 0.00 | 0.00 | 0.00 | 52 | 1015.2 |
| 20260901185940 | 93 | 133 | 4.0 | 8.0 | 0.00 | 0.00 | 0.00 | 52 | 1017.0 |
| 20260901185218 | 94 | 143 | 4.0 | 11.0 | 0.00 | 0.00 | 0.00 | 53 | 1017.1 |
| 20260901184913 | 93 | 182 | 5.0 | 12.0 | 0.00 | 0.00 | 0.00 | 53 | 1017.1 |
| 20260901184558 | 93 | 165 | 3.0 | 11.0 | 0.00 | 0.00 | 0.00 | 52 | 1015.4 |
| 20260901184147 | 93 | 80 | 5.0 | 12.0 | 0.00 | 0.00 | 0.00 | 52 | 1017.1 |
| 20260901183622 | 93 | 114 | 4.0 | 10.0 | 0.00 | 0.00 | 0.00 | 55 | 1017.1 |
| 20260901183321 | 93 | 99 | 4.0 | 10.0 | 0.00 | 0.00 | 0.00 | 54 | 1017.2 |
| 20260901183033 | 93 | 98 | 5.0 | 9.0 | 0.00 | 0.00 | 0.00 | 54 | 1015.5 |
| 20260901182553 | 93 | 153 | 4.0 | 9.0 | 0.00 | 0.00 | 0.00 | 55 | 1017.2 |
| 20260901182041 | 93 | 135 | 3.0 | 9.0 | 0.00 | 0.00 | 0.00 | 54 | 1017.2 |
| 20260901181541 | 93 | 175 | 4.0 | 10.0 | 0.00 | 0.00 | 0.00 | 54 | 1017.2 |
| 20260901181508 | 92 | 170 | 2.0 | 10.0 | 0.00 | 0.00 | 0.00 | 54 | 1015.5 |
| 20260901181012 | 93 | 205 | 4.0 | 9.0 | 0.00 | 0.00 | 0.00 | 54 | 1017.2 |
| 20260901180448 | 93 | 149 | 4.0 | 9.0 | 0.00 | 0.00 | 0.00 | 56 | 1017.3 |
| 20260901180109 | 92 | 194 | 3.0 | 10.0 | 0.00 | 0.00 | 0.00 | 55 | 1015.6 |
| 20260901175920 | 92 | 199 | 4.0 | 10.0 | 0.00 | 0.00 | 0.00 | 53 | 1017.4 |
| 20260901175349 | 92 | 136 | 4.0 | 10.0 | 0.00 | 0.00 | 0.00 | 54 | 1017.4 |
| 20260901174846 | 92 | 174 | 4.0 | 10.0 | 0.00 | 0.00 | 0.00 | 57 | 1017.4 |
| 20260901174534 | 91 | 105 | 5.0 | 10.0 | 0.00 | 0.00 | 0.00 | 56 | 1015.7 |
| 20260901174344 | 92 | 132 | 4.0 | 10.0 | 0.00 | 0.00 | 0.00 | 56 | 1017.5 |
| 20260901173817 | 92 | 204 | 4.0 | 9.0 | 0.00 | 0.00 | 0.00 | 55 | 1017.5 |
| 20260901173314 | 92 | 90 | 3.0 | 9.0 | 0.00 | 0.00 | 0.00 | 58 | 1017.5 |
| 20260901173258 | 91 | 202 | 4.0 | 9.0 | 0.00 | 0.00 | 0.00 | 58 | 1017.6 |
| 20260901173003 | 91 | 161 | 4.0 | 9.0 | 0.00 | 0.00 | 0.00 | 57 | 1015.9 |
| 20260901172301 | 91 | 76 | 4.0 | 11.0 | 0.00 | 0.00 | 0.00 | 61 | 1017.7 |
| 20260901171801 | 91 | 125 | 4.0 | 11.0 | 0.00 | 0.00 | 0.00 | 60 | 1017.6 |
| 20260901171602 | 90 | 197 | 4.0 | 10.0 | 0.00 | 0.00 | 0.00 | 59 | 1016.0 |
| 20260901171257 | 91 | 190 | 4.0 | 10.0 | 0.00 | 0.00 | 0.00 | 59 | 1017.7 |
| 20260901170752 | 91 | 194 | 4.0 | 10.0 | 0.00 | 0.00 | 0.00 | 60 | 1017.7 |
| 20260901170230 | 90 | 163 | 3.0 | 8.0 | 0.00 | 0.00 | 0.00 | 62 | 1017.8 |
| 20260901170049 | 90 | 172 | 3.0 | 8.0 | 0.00 | 0.00 | 0.00 | 60 | 1016.1 |
| 20260901165659 | 90 | 194 | 3.0 | 9.0 | 0.00 | 0.00 | 0.00 | 59 | 1017.8 |
| 20260901165154 | 90 | 183 | 4.0 | 12.0 | 0.00 | 0.00 | 0.00 | 61 | 1017.9 |
| 20260901164652 | 90 | 166 | 4.0 | 12.0 | 0.00 | 0.00 | 0.00 | 61 | 1017.9 |
| 20260901164600 | 89 | 168 | 5.0 | 12.0 | 0.00 | 0.00 | 0.00 | 61 | 1016.4 |
| 20260901164150 | 89 | 87 | 4.0 | 10.0 | 0.00 | 0.00 | 0.00 | 64 | 1017.9 |
| 20260901163646 | 89 | 114 | 6.0 | 12.0 | 0.00 | 0.00 | 0.00 | 61 | 1018.0 |
| 20260901163146 | 89 | 181 | 6.0 | 12.0 | 0.00 | 0.00 | 0.00 | 61 | 1018.0 |
| 20260901163013 | 88 | 182 | 6.0 | 12.0 | 0.00 | 0.00 | 0.00 | 61 | 1016.4 |
| 20260901162908 | 89 | 49 | 5.0 | 11.0 | 0.00 | 0.00 | 0.00 | 62 | 1017.9 |
| 20260901162140 | 89 | 186 | 6.0 | 11.0 | 0.00 | 0.00 | 0.00 | 62 | 1018.0 |
| 20260901161832 | 89 | 221 | 5.0 | 11.0 | 0.00 | 0.00 | 0.00 | 62 | 1018.0 |
| 20260901161533 | 88 | 205 | 4.0 | 11.0 | 0.00 | 0.00 | 0.00 | 64 | 1016.4 |
| 20260901161111 | 88 | 197 | 5.0 | 12.0 | 0.00 | 0.00 | 0.00 | 62 | 1018.0 |
| 20260901160825 | 88 | 172 | 5.0 | 12.0 | 0.00 | 0.00 | 0.00 | 62 | 1018.0 |
| 20260901160058 | 88 | 69 | 4.0 | 11.0 | 0.00 | 0.00 | 0.00 | 63 | 1016.3 |
| 20260901160040 | 88 | 155 | 5.0 | 14.0 | 0.00 | 0.00 | 0.00 | 63 | 1018.0 |
| 20260901155536 | 88 | 177 | 5.0 | 14.0 | 0.00 | 0.00 | 0.00 | 62 | 1018.0 |
| 20260901155008 | 88 | 173 | 5.0 | 11.0 | 0.00 | 0.00 | 0.00 | 62 | 1018.1 |
| 20260901154546 | 88 | 185 | 4.0 | 11.0 | 0.00 | 0.00 | 0.00 | 63 | 1016.6 |
| 20260901154506 | 88 | 194 | 5.0 | 11.0 | 0.00 | 0.00 | 0.00 | 64 | 1018.2 |
| 20260901153939 | 88 | 204 | 5.0 | 11.0 | 0.00 | 0.00 | 0.00 | 62 | 1018.3 |
| 20260901153436 | 88 | 191 | 4.0 | 12.0 | 0.00 | 0.00 | 0.00 | 64 | 1018.3 |
| 20260901153136 | 87 | 211 | 5.0 | 12.0 | 0.00 | 0.00 | 0.00 | 66 | 1018.2 |
| 20260901153055 | 87 | 184 | 3.0 | 11.0 | 0.00 | 0.00 | 0.00 | 65 | 1016.7 |
| 20260901152345 | 87 | 120 | 6.0 | 15.0 | 0.00 | 0.00 | 0.00 | 66 | 1018.3 |
| 20260901151818 | 87 | 171 | 4.0 | 15.0 | 0.00 | 0.00 | 0.00 | 66 | 1018.3 |
| 20260901151552 | 86 | 104 | 4.0 | 15.0 | 0.00 | 0.00 | 0.00 | 66 | 1016.6 |
| 20260901151314 | 87 | 124 | 4.0 | 10.0 | 0.00 | 0.00 | 0.00 | 66 | 1018.3 |
| 20260901150814 | 86 | 194 | 4.0 | 11.0 | 0.00 | 0.00 | 0.00 | 68 | 1018.2 |
| 20260901150245 | 86 | 136 | 4.0 | 10.0 | 0.00 | 0.00 | 0.00 | 68 | 1018.2 |
| 20260901150020 | 85 | 197 | 3.0 | 11.0 | 0.00 | 0.00 | 0.00 | 68 | 1016.5 |
| 20260901145721 | 85 | 174 | 4.0 | 12.0 | 0.00 | 0.00 | 0.00 | 68 | 1018.2 |
| 20260901145153 | 85 | 217 | 4.0 | 10.0 | 0.00 | 0.00 | 0.00 | 69 | 1018.2 |
| 20260901144650 | 85 | 138 | 4.0 | 9.0 | 0.00 | 0.00 | 0.00 | 69 | 1018.3 |
| 20260901144527 | 84 | 186 | 4.0 | 9.0 | 0.00 | 0.00 | 0.00 | 69 | 1016.6 |
| 20260901144126 | 85 | 141 | 3.0 | 9.0 | 0.00 | 0.00 | 0.00 | 69 | 1018.2 |
| 20260901143600 | 85 | 139 | 4.0 | 10.0 | 0.00 | 0.00 | 0.00 | 70 | 1018.3 |
| 20260901143056 | 84 | 66 | 5.0 | 11.0 | 0.00 | 0.00 | 0.00 | 69 | 1018.2 |
| 20260901143003 | 84 | 125 | 4.0 | 10.0 | 0.00 | 0.00 | 0.00 | 70 | 1016.7 |
| 20260901142553 | 84 | 178 | 4.0 | 11.0 | 0.00 | 0.00 | 0.00 | 71 | 1018.4 |
| 20260901142045 | 84 | 96 | 3.0 | 9.0 | 0.00 | 0.00 | 0.00 | 72 | 1018.4 |
| 20260901141546 | 84 | 213 | 4.0 | 10.0 | 0.00 | 0.00 | 0.00 | 73 | 1018.5 |
| 20260901141522 | 83 | 159 | 2.0 | 10.0 | 0.00 | 0.00 | 0.00 | 73 | 1016.9 |
| 20260901141013 | 83 | 106 | 4.0 | 10.0 | 0.00 | 0.00 | 0.00 | 73 | 1018.5 |
| 20260901140513 | 83 | 157 | 4.0 | 9.0 | 0.00 | 0.00 | 0.00 | 74 | 1018.5 |
| 20260901140025 | 82 | 159 | 4.0 | 9.0 | 0.00 | 0.00 | 0.00 | 73 | 1016.8 |
| 20260901135946 | 83 | 192 | 3.0 | 8.0 | 0.00 | 0.00 | 0.00 | 74 | 1018.4 |
| 20260901135421 | 83 | 193 | 3.0 | 8.0 | 0.00 | 0.00 | 0.00 | 73 | 1018.5 |
| 20260901134856 | 83 | 160 | 2.0 | 8.0 | 0.00 | 0.00 | 0.00 | 74 | 1018.5 |
| 20260901134630 | 82 | 150 | 3.0 | 8.0 | 0.00 | 0.00 | 0.00 | 75 | 1016.8 |
| 20260901134325 | 82 | 222 | 2.0 | 6.0 | 0.00 | 0.00 | 0.00 | 75 | 1018.4 |
| 20260901133826 | 82 | 148 | 2.0 | 4.0 | 0.00 | 0.00 | 0.00 | 78 | 1018.4 |
| 20260901133322 | 81 | 167 | 2.0 | 4.0 | 0.00 | 0.00 | 0.00 | 78 | 1018.4 |
| 20260901133032 | 80 | 166 | 0.0 | 4.0 | 0.00 | 0.00 | 0.00 | 78 | 1016.8 |
| 20260901132757 | 80 | 167 | 2.0 | 5.0 | 0.00 | 0.00 | 0.00 | 78 | 1018.3 |
| 20260901132229 | 80 | 170 | 2.0 | 5.0 | 0.00 | 0.00 | 0.00 | 79 | 1018.3 |
| 20260901131728 | 80 | 145 | 2.0 | 7.0 | 0.00 | 0.00 | 0.00 | 79 | 1018.3 |
| 20260901131547 | 79 | 144 | 1.0 | 7.0 | 0.00 | 0.00 | 0.00 | 79 | 1016.7 |
| 20260901131202 | 79 | 134 | 3.0 | 7.0 | 0.00 | 0.00 | 0.00 | 79 | 1018.3 |
| 20260901130659 | 79 | 143 | 2.0 | 5.0 | 0.00 | 0.00 | 0.00 | 81 | 1018.4 |
| 20260901130417 | 78 | 150 | 3.0 | 5.0 | 0.00 | 0.00 | 0.00 | 81 | 1018.5 |
| 20260901130039 | 78 | 150 | 2.0 | 5.0 | 0.00 | 0.00 | 0.00 | 81 | 1017.0 |
| 20260901125655 | 78 | 129 | 3.0 | 6.0 | 0.00 | 0.00 | 0.00 | 81 | 1018.4 |
| 20260901125348 | 78 | 122 | 3.0 | 6.0 | 0.00 | 0.00 | 0.00 | 82 | 1018.4 |
| 20260901124624 | 78 | 115 | 3.0 | 6.0 | 0.00 | 0.00 | 0.00 | 82 | 1018.5 |
| 20260901124532 | 77 | 113 | 2.0 | 6.0 | 0.00 | 0.00 | 0.00 | 83 | 1016.9 |
| 20260901124124 | 77 | 155 | 2.0 | 6.0 | 0.00 | 0.00 | 0.00 | 83 | 1018.5 |
| 20260901123048 | 76 | 123 | 2.0 | 6.0 | 0.00 | 0.00 | 0.00 | 84 | 1017.0 |
| 20260901123030 | 77 | 131 | 2.0 | 5.0 | 0.00 | 0.00 | 0.00 | 84 | 1018.5 |
| 20260901122528 | 77 | 111 | 2.0 | 5.0 | 0.00 | 0.00 | 0.00 | 85 | 1018.6 |
| 20260901122000 | 76 | 146 | 2.0 | 4.0 | 0.00 | 0.00 | 0.00 | 85 | 1018.6 |
| 20260901121541 | 76 | 273 | 1.0 | 4.0 | 0.00 | 0.00 | 0.00 | 85 | 1017.0 |
| 20260901121500 | 76 | 273 | 2.0 | 4.0 | 0.00 | 0.00 | 0.00 | 86 | 1018.5 |
| 20260901120930 | 76 | 121 | 2.0 | 5.0 | 0.00 | 0.00 | 0.00 | 86 | 1018.5 |
| 20260901120426 | 76 | 120 | 2.0 | 4.0 | 0.00 | 0.00 | 0.00 | 86 | 1018.4 |
| 20260901120052 | 75 | 128 | 1.0 | 4.0 | 0.00 | 0.00 | 0.00 | 87 | 1016.7 |
| 20260901115924 | 76 | 273 | 1.0 | 4.0 | 0.00 | 0.00 | 0.00 | 87 | 1018.3 |
| 20260901115424 | 75 | 131 | 0.0 | 1.0 | 0.00 | 0.00 | 0.00 | 87 | 1018.3 |
| 20260901114857 | 75 | 273 | 0.0 | 0.0 | 0.00 | 0.00 | 0.00 | 87 | 1018.2 |
| 20260901114606 | 75 | 131 | 0.0 | 0.0 | 0.00 | 0.00 | 0.00 | 87 | 1016.6 |
| 20260901114327 | 75 | 132 | 0.0 | 0.0 | 0.00 | 0.00 | 0.00 | 87 | 1018.1 |
| 20260901113826 | 75 | 132 | 0.0 | 0.0 | 0.00 | 0.00 | 0.00 | 87 | 1018.0 |
| 20260901113327 | 75 | 132 | 0.0 | 3.0 | 0.00 | 0.00 | 0.00 | 87 | 1017.9 |
| 20260901113042 | 76 | 132 | 0.0 | 3.0 | 0.00 | 0.00 | 0.00 | 87 | 1017.9 |
| 20260901113040 | 75 | 132 | 0.0 | 3.0 | 0.00 | 0.00 | 0.00 | 87 | 1016.3 |
| 20260901112320 | 76 | 132 | 0.0 | 2.0 | 0.00 | 0.00 | 0.00 | 87 | 1017.8 |
| 20260901112014 | 76 | 132 | 0.0 | 2.0 | 0.00 | 0.00 | 0.00 | 87 | 1017.7 |
| 20260901111548 | 75 | 132 | 0.0 | 1.0 | 0.00 | 0.00 | 0.00 | 86 | 1016.1 |
| 20260901111248 | 76 | 132 | 0.0 | 1.0 | 0.00 | 0.00 | 0.00 | 86 | 1017.7 |
| 20260901110719 | 76 | 132 | 0.0 | 3.0 | 0.00 | 0.00 | 0.00 | 86 | 1017.6 |
| 20260901110220 | 76 | 132 | 0.0 | 3.0 | 0.00 | 0.00 | 0.00 | 86 | 1017.6 |
| 20260901110041 | 75 | 132 | 0.0 | 3.0 | 0.00 | 0.00 | 0.00 | 86 | 1016.0 |
| 20260901105713 | 76 | 136 | 0.0 | 1.0 | 0.00 | 0.00 | 0.00 | 86 | 1017.6 |
| 20260901105212 | 76 | 138 | 0.0 | 1.0 | 0.00 | 0.00 | 0.00 | 86 | 1017.5 |
| 20260901104644 | 76 | 138 | 0.0 | 4.0 | 0.00 | 0.00 | 0.00 | 86 | 1017.6 |
| 20260901104552 | 75 | 138 | 0.0 | 4.0 | 0.00 | 0.00 | 0.00 | 86 | 1015.9 |
| 20260901104415 | 76 | 138 | 1.0 | 4.0 | 0.00 | 0.00 | 0.00 | 86 | 1017.5 |